Weather History for Ft Lauderdale, FL

Change the Weather History Date:

Monday, February 18, 2013

  Actual Average Record
Temperature  
Mean Temperature 60 °F 71 °F  
Max Temperature 71 °F 78 °F 87 °F (1959)
Min Temperature 48 °F 64 °F 38 °F (1996)
Degree Days  
Heating Degree Days 5 1  
Month to date heating degree days 19 18  
Since 1 July heating degree days 98  
Cooling Degree Days 0 7  
Month to date cooling degree days 101 117  
Year to date cooling degree days 356 287  
Growing Degree Days 9 (Base 50)    
Moisture  
Dew Point 44 °F    
Average Humidity 53    
Maximum Humidity 61    
Minimum Humidity 44    
Precipitation  
Precipitation 0.00 in 0.10 in 2.15 in (1920)
Month to date precipitation 1.91 2.04  
Year to date precipitation 2.89 5.67  
Snow  
Snow 0.00 in - - ()
Month to date snowfall 0.0  
Since 1 July snowfall 0.0  
Snow Depth 0.00 in    
Sea Level Pressure  
Sea Level Pressure 30.26 in    
Wind  
Wind Speed 12 mph (ENE)    
Max Wind Speed 21 mph    
Max Gust Speed 29 mph    
Visibility 10 miles    
Events      
T = Trace of Precipitation, MM = Missing Value Source: NWS Daily Summary

Daily Weather History Graph

Daily Weather History Graph

Search for Another Location

Airport:

Trip Planner

Search our weather history database for the weather conditions in past years. The results will help you decide how hot, cold, wet, or windy it might be!

Date:

Astronomy

Feb. 18, 2013 Rise Set
Actual Time 6:53 AM EST 6:15 PM EST
Civil Twilight 6:30 AM EST 6:39 PM EST
Nautical Twilight 6:03 AM EST 7:06 PM EST
Astronomical Twilight 5:36 AM EST 7:33 PM EST
Moon 12:16 PM EST (2/18) 1:16 AM EST (2/18)
Length of Visible Light 12h 09m
Length of Day
11h 22m
First Quarter, 58% of the Moon is Illuminated
Feb 18
First Quarter
Feb 25
Full
Mar 4
Last Quarter
Mar 11
New
Mar 19
First Quarter

Hourly Weather History & Observations

Time (EST) Temp. Dew Point Humidity Pressure Visibility Wind Dir Wind Speed Gust Speed Precip Events Conditions
12:53 AM 50.0 °F 32.0 °F 50% 30.29 in 10.0 mi NNW 12.7 mph - N/A   Clear
1:53 AM 50.0 °F 32.0 °F 50% 30.28 in 10.0 mi NNW 10.4 mph - N/A   Clear
2:53 AM 50.0 °F 34.0 °F 54% 30.27 in 10.0 mi NNW 11.5 mph - N/A   Clear
3:53 AM 48.9 °F 34.0 °F 56% 30.26 in 10.0 mi NNW 12.7 mph - N/A   Partly Cloudy
4:53 AM 48.9 °F 35.1 °F 59% 30.26 in 10.0 mi NNW 10.4 mph - N/A   Partly Cloudy
5:53 AM 48.0 °F 35.1 °F 61% 30.27 in 10.0 mi NNW 10.4 mph - N/A   Clear
6:53 AM 48.0 °F 34.0 °F 58% 30.28 in 10.0 mi NNW 6.9 mph - N/A   Partly Cloudy
7:53 AM 50.0 °F 35.1 °F 57% 30.30 in 10.0 mi NNW 5.8 mph - N/A   Partly Cloudy
8:53 AM 54.0 °F 37.9 °F 55% 30.30 in 10.0 mi NNW 6.9 mph - N/A   Scattered Clouds
9:47 AM 64.4 °F 44.6 °F 49% 30.31 in 10.0 mi East 17.3 mph 23.0 mph N/A   Mostly Cloudy
9:53 AM 64.9 °F 43.0 °F 45% 30.31 in 10.0 mi East 18.4 mph 25.3 mph N/A   Mostly Cloudy
10:53 AM 66.9 °F 46.0 °F 47% 30.32 in 10.0 mi East 13.8 mph 20.7 mph N/A   Mostly Cloudy
11:53 AM 66.9 °F 45.0 °F 45% 30.31 in 10.0 mi East 15.0 mph 24.2 mph N/A   Overcast
12:53 PM 69.1 °F 48.0 °F 47% 30.29 in 10.0 mi East 17.3 mph 21.9 mph N/A   Mostly Cloudy
1:53 PM 70.0 °F 48.9 °F 47% 30.26 in 10.0 mi East 18.4 mph 24.2 mph N/A   Mostly Cloudy
2:53 PM 69.1 °F 50.0 °F 51% 30.24 in 10.0 mi East 13.8 mph 23.0 mph N/A   Overcast
3:53 PM 68.0 °F 48.9 °F 50% 30.23 in 10.0 mi East 13.8 mph - N/A   Overcast
4:53 PM 68.0 °F 48.0 °F 49% 30.23 in 10.0 mi SE 11.5 mph - N/A   Mostly Cloudy
5:53 PM 66.9 °F 51.1 °F 57% 30.24 in 10.0 mi East 11.5 mph - N/A   Mostly Cloudy
6:53 PM 66.9 °F 51.1 °F 57% 30.23 in 10.0 mi ESE 13.8 mph - N/A   Mostly Cloudy
7:53 PM 66.9 °F 52.0 °F 59% 30.23 in 10.0 mi East 11.5 mph - N/A   Mostly Cloudy
8:53 PM 68.0 °F 53.1 °F 59% 30.22 in 10.0 mi East 11.5 mph - N/A   Scattered Clouds
9:53 PM 68.0 °F 55.0 °F 63% 30.22 in 10.0 mi East 12.7 mph - N/A   Mostly Cloudy
10:53 PM 68.0 °F 54.0 °F 61% 30.22 in 10.0 mi SE 10.4 mph - N/A   Scattered Clouds
11:53 PM 68.0 °F 54.0 °F 61% 30.21 in 10.0 mi SE 15.0 mph - N/A   Scattered Clouds